THORAD DELTA 1 DEB, 42625

Orbit data source: Space-Track

THORAD DELTA 1 DEB, 42625 is space debris in SSO originally from a launch on Fri, 15 Nov 1974 UTC launched from the Air Force Western Test Range (AFWTR). Debris objects in space refer to the collection of defunct objects orbiting the Earth. Examples of debris include non-operational satellites, rocket bodies, and fragments generated from explosions, collisions, or faulty payload assembly.

Loading next visibility...
Identifier
42625, 1974-089GS
Orbit
SSO
Country
Flag of USUS
Related business
Manufacturer
Unknown
Mission
Spacecraft
Bus & Motor
Unknown
Mass
Unknown
Launch date (UTC)
1974-11-15 (51 years ago)
Launch vehicle
Unknown
Launch site
Air Force Western Test Range (AFWTR)
Object type
Payload
Rocket body
Debris
Shape & HBR
Unknown shape, 0.1 m
Radar Cross Section
Small (<0.1 m²)

Expand to show TLE details & history
Last TLE update: 5 days ago

TLE from 5 days ago
0 THORAD DELTA 1 DEB
1 42625U 74089GS  25349.44556184  .00000159  00000-0  14493-2 0  9995
2 42625 102.0133 321.5284 0000948 231.2360 282.0719 12.44208820549136
Epoch: 2025-12-15T10:41Z
TLE epoch observation values (Epoch: 2025-12-15T10:41:36.542Z)
Latitude
26.10678°
Longitude
-97.26157°
Altitude
1,491.514 km
Speed
7.12 km/s
True Right ascension
09h 49m 56s
True Declination
25° 59' 02"
Sunlit
Object was in daylight at epoch
Visualization orbit readout
Latitude
Unknown
Longitude
Unknown
Altitude
Unknown
Speed
Unknown
Apparent Right ascension
Unknown
Apparent Declination
Unknown
Sunlit
N/A
Visualization observer readout
Local Sidereal Time
20:44:15
Azimuth
Unknown
Elevation
Unknown
Doppler factor
Unknown
Orbital elements
Apogee altitude
1,487.127 km
Perigee altitude
1,485.636 km
Semi-major axis
7,864.519 km
Eccentricity
0.00009
Inclination
102.0133°
RAAN
321.5284°
Arg. of periapsis
231.236°
True anomaly
282.06128°
Mean anomaly
282.0719°
Eccentric anomaly
282.06659°
Mean motion
3.11197 °/min
Orbital period
115.68 mins
BSTAR
0.0014493
Loading maneuver chart data...
Computing Atmospheric mass density...

Documentation

Showing up to 5 results
|